Regional Weather Roundup
Issued by NWS

Home | Current Version | Previous Version | Text Only | Print | Product List | Glossary Off
Versions: 1 2 3 4 5 6 7 8 9 10 11 12 13 14 15 16 17 18 19 20 21 22 23 24 25 26 27 28 29 30 31 32 33 34 35 36 37 38 39 40 41 42 43 44 45 46 47 48 49 50

131
ASUS43 KMKX 082211
RWRWI

WISCONSIN REGIONAL WEATHER ROUNDUP
NATIONAL WEATHER SERVICE MILWAUKEE/SULLIVAN WI
400 PM CST MON FEB 08 2016

NOTE: "FAIR" INDICATES FEW OR NO CLOUDS BELOW 12,000 FEET WITH NO
SIGNIFICANT WEATHER AND/OR OBSTRUCTIONS TO VISIBILITY.

WIZ001-002-006>008-014>016-023>028-082300-
NORTHWEST WISCONSIN

CITY           SKY/WX    TMP DP  RH WIND       PRES   REMARKS
SUPERIOR ARPT  CLOUDY    13   3  63 N17G25    29.95R WCI  -4
ASHLAND        LGT SNOW  15   9  76 NW7       29.88R WCI   5
HAYWARD        LGT SNOW  13   5  70 NW8       29.87R WCI   2
SIREN          LGT SNOW  14   5  67 NW12G18   29.92S WCI   1
CUMBERLAND     LGT SNOW  12   5  73 NW14      29.87S WCI  -3
RICE LAKE      LGT SNOW  14   6  72 NW9G16    29.90R WCI   2
CHETEK         LGT SNOW  14   7  75 NW6       29.88R WCI   5
LADYSMITH      LGT SNOW  15   9  80 NW14      29.85R WCI   0
EAU CLAIRE     LGT SNOW  15   6  67 NW13      29.88R WCI   1
MENOMONIE      LGT SNOW  16   6  65 W17       29.90R WCI   0
NEW RICHMOND   CLOUDY    15   6  67 NW18G24   29.92S WCI  -2
OSCEOLA        CLOUDY    15   7  69 NW13G21   29.96S WCI   1
$$

WIZ003>005-009-010-017-018-082300-
NORTH CENTRAL WISCONSIN

CITY           SKY/WX    TMP DP  RH WIND       PRES   REMARKS
MANITOWISH WTR LGT SNOW  14  10  81 N12G18    29.75R WCI   1
ARBOR VITAE    FLURRIES  17  10  75 N18       29.74R WCI   0
WOODRUFF       FLURRIES  17  10  75 N18       29.74R WCI   0
RHINELANDER    LGT SNOW  17  10  74 NW9       29.72R WCI   6
EAGLE RIVER    LGT SNOW  17  10  74 NW15      29.71R WCI   2
LAND O LAKES   LGT SNOW  17  12  82 NW13G20   29.72R WCI   3
PHILLIPS       LGT SNOW  15   9  79 NW12      29.77R WCI   1
TOMAHAWK       LGT SNOW  19  12  76 N7        29.74R WCI   9
MEDFORD        FLURRIES  16  10  79 NW13      29.76R WCI   2
MERRILL        LGT SNOW  20  14  77 N13       29.74R WCI   8
$$

WIZ029-030-035-036-043>047-082300-
CENTRAL WISCONSIN

CITY           SKY/WX    TMP DP  RH WIND       PRES   REMARKS
WAUSAU         LGT SNOW  23  15  71 NW14      29.71R WCI  11
MOSINEE        CLOUDY    21  16  79 NW12G17   29.73R WCI   9
MARSHFIELD     CLOUDY    18   9  68 NW20      29.76R WCI   2
STEVENS POINT  CLOUDY    22  14  71 NW10      29.73R WCI  11
WAUPACA        LGT SNOW  28  22  77 NW9       29.72R WCI  19
WAUTOMA        LGT SNOW  23  16  75 NW15G22   29.74R WCI  10
WISC RAPIDS    CLOUDY    20  10  65 NW18G25   29.77R WCI   5
CAMP DOUGLAS   CLOUDY    19  14  79 NW18      29.79R WCI   4
$$

WIZ011>013-019>022-031-037>040-048>050-082300-
NORTHEAST WISCONSIN

CITY           SKY/WX    TMP DP  RH WIND       PRES   REMARKS
ANTIGO         FLURRIES  22  15  75 NW15      29.69R WCI   8
SHAWANO        FLURRIES  29  22  74 NW7       29.70R WCI  22
OCONTO         CLOUDY    26  25  95 NW7       29.70R WCI  18
STURGEON BAY   CLOUDY    27  18  69 N16       29.69R WCI  14
GREEN BAY      LGT SNOW  27  24  89 NW10      29.69R WCI  17
MANITOWOC      MIX PCPN  29  24  82 N15       29.67R WCI  18
APPLETON       FLURRIES  27  18  69 NW17      29.67R WCI  14
CLINTONVILLE   LGT SNOW  27  23  86 NW7       29.70R WCI  19
OSHKOSH        CLOUDY    28  20  71 W10       29.69R WCI  19
$$

WIZ032>034-041-042-053>061-082300-
SOUTHWEST WISCONSIN

CITY           SKY/WX    TMP DP  RH WIND       PRES   REMARKS
LA CROSSE      CLOUDY    17   7  64 NW17      29.89R WCI   1
SPARTA         CLOUDY    18  10  70 NW14G22   29.86R WCI   4
VIROQUA        CLOUDY    16   9  72 NW22      29.80R WCI  -1
BOSCOBEL       CLOUDY    22  11  62 NW9       29.84R WCI  12
PRAIRIE DU CHI CLOUDY    19   8  61 NW20G25   29.86R WCI   3
PLATTEVILLE    CLOUDY    22  14  71 NW14      29.79R WCI   9
$$

WIZ056-057-062-063-064-067-068-082300-
SOUTH CENTRAL WISCONSIN

CITY           SKY/WX    TMP DP  RH WIND       PRES   REMARKS
REEDSBURG      CLOUDY    21  12  70 NW10      29.77R WCI   9
BARABOO/DELLS  CLOUDY    21  12  69 NW14G20   29.75R WCI   8
LONE ROCK      CLOUDY    22  11  62 W14       29.80R WCI   9
MINERAL POINT  CLOUDY    23  14  68 NW13      29.76R WCI  11
MADISON        FLURRIES  22  14  71 NW14G21   29.74R WCI   9
MIDDLETON      CLOUDY    23  16  73 NW12G18   29.75R WCI  12
WATERTOWN      CLOUDY    24  20  85 NW8G16    29.71R WCI  15
MONROE         CLOUDY    23  18  80 NW13G21   29.73R WCI  11
JANESVILLE     CLOUDY    27  18  69 NW14      29.72R WCI  15
$$

WIZ051-052-058>065-066-070>072-082300-
SOUTHEAST WISCONSIN

CITY           SKY/WX    TMP DP  RH WIND       PRES   REMARKS
MILWAUKEE      FLURRIES  27  20  75 NW13      29.68R WCI  16
WAUKESHA       CLOUDY    25  19  80 W13       29.70R WCI  13
MILWAUKEE/TIMM CLOUDY    27  19  74 W13       29.69R WCI  16
RACINE         FLURRIES  27  20  75 NW14G21   29.70R WCI  16
BURLINGTON     CLOUDY    25  18  76 NW14      29.70R WCI  13
KENOSHA        CLOUDY    27  20  75 NW17G23   29.69R WCI  14
FOND DU LAC    CLOUDY    27  19  72 NW15      29.69R WCI  15
SHEBOYGAN      LGT SNOW  28  24  85 NW10      29.66R FOG     WCI  19
WEST BEND      FLURRIES  27  21  80 W12       29.68R WCI  16
JUNEAU         LGT SNOW  23  18  78 NW13G20   29.71R WCI  12
$$

LSZ147-162-082300-
LAKE SUPERIOR

STATION/POSITION TIME  TEMP    WIND        PRES    WAVE
                       AIR SEA DIR/SP/G            HT/PER
                 (UTC) (F)     (DEG/KT/KT) (MB)    (FT/S)
DEVILS ISLAND    2200   15     320/ 21/ 23 1013.0R
PORT WING        2100   16     310/ 16/ 22 1012.5R
SAXON HARBOR     2140   18                 1011.2R
$$

LMZ867-665-643>646-082300-
LAKE MICHIGAN

STATION/POSITION TIME  TEMP    WIND        PRES    WAVE
                       AIR SEA DIR/SP/G            HT/PER
                 (UTC) (F)     (DEG/KT/KT) (MB)    (FT/S)
CHAMBERS ISLAND  2100   27     310/ 14/ 18 1004.7R
NORTHPORT PIER   2100   27     340/ 17/ 22 1004.4R
ALGOMA LAKESHORE 2141          330/ 17/ 26   N/A
KEWAUNEE LAKESHO 2100   30     340/ 11/ 15 1003.2R
SHEBOYGAN LAKESH 2200   28     300/ 12/ 16 1005.5R
PORT WASHINGTON  2100   28     290/  8/ 13 1005.4R
MILWAUKEE LAKESH 2110   27     300/ 15/ 19   N/A
KENOSHA   LAKESH 2200   27     290/ 11/ 19 1005.8R
$$

TC  - TEMPERATURE IN CELSIUS
VSB - VISIBILITY IN STATUTE MILES
WCI - WIND CHILL INDEX
HX  - HEAT INDEX





USA.gov is the U.S. government's official web portal to all federal, state and local government web resources and services.